Location: Prairie State College
(41.5244°N, 87.6382°W)
Time: 13:10:56
(UTC-05:00)

ARGOS Delta rocket - Visible Passes

Search period start: 01 September 2015 00:00
Search period end: 11 September 2015 00:00
Orbit: 636 x 839 km, 96.5° (Epoch: 31 August)

Date Brightness Start Highest point End Pass type
(mag) Time Alt. Az. Time Alt. Az. Time Alt. Az.
01 Sep 4.8 20:07:38 10° SE 20:12:35 37° ENE 20:17:31 10° N visible
01 Sep 5.8 21:46:29 10° SSW 21:51:17 30° W 21:55:58 10° NNW visible
02 Sep 4.3 21:01:00 11° S 21:06:16 75° W 21:11:41 10° NNW visible
03 Sep 4.5 20:16:24 10° SE 20:21:33 45° ENE 20:26:40 10° N visible
03 Sep 6.2 21:56:00 10° SW 22:00:26 24° W 22:04:40 10° NW visible
04 Sep 4.6 21:10:15 12° S 21:15:20 59° W 21:20:37 10° NNW visible
05 Sep 4.2 20:25:14 10° SSE 20:30:33 56° ENE 20:35:46 10° N visible
05 Sep 6.4 22:05:42 10° SW 22:09:35 19° W 22:13:14 10° NW visible
06 Sep 5.3 19:41:51 10° ESE 19:45:59 24° ENE 19:50:10 10° NNE visible
06 Sep 5.0 21:19:30 12° S 21:24:24 47° W 21:29:30 10° NNW visible
07 Sep 4.1 20:34:19 11° SSE 20:39:33 70° ENE 20:44:49 10° N visible
07 Sep 6.7 22:15:38 10° WSW 22:18:46 15° W 22:21:35 10° NW visible
08 Sep 5.0 19:50:25 10° SE 19:54:56 29° ENE 19:59:25 10° NNE visible
08 Sep 5.4 21:28:47 12° SSW 21:33:29 37° W 21:38:20 10° NNW visible
09 Sep 4.0 20:43:37 13° SSE 20:48:34 87° E 20:53:49 10° N visible
09 Sep 6.8 22:26:06 10° WSW 22:27:58 11° W 22:29:26 10° WNW visible
10 Sep 4.7 19:59:06 10° SE 20:03:53 35° ENE 20:08:36 10° N visible
10 Sep 5.8 21:38:05 11° SSW 21:42:35 29° W 21:47:05 10° NNW visible
